{"data":{"norad_id":54053,"intl_designator":"2022-136C","name":"STARLINK-5176","alt_names":[],"object_type":"PAYLOAD","status":"ACTIVE","operator":null,"country":"US","launch_date":"2022-10-20","launch_site_code":"AFETR","launch_vehicle":null,"mission":null,"orbit_class":"UNKNOWN","rcs_meters":null,"size_class":null,"mass_kg":null,"dimensions":null,"purposes":["comms"],"wikipedia_slug":null,"has_3d_model":false,"image_url":null,"decayed_at":null,"tle_current":{"epoch":"2026-09-20T05:36:25.180128Z","epoch_age_seconds":109473,"freshness":"FRESH","line1":"1 54053U 22136C   26263.23362477  .00000250  00000+0  19827-4 0  9991","line2":"2 54053  53.1591 176.0979 0001419  91.3533 268.7631 15.31700369216413","mean_motion":15.31700369,"eccentricity":0.0001419,"inclination_deg":53.1591,"raan_deg":176.0979,"arg_perigee_deg":91.3533,"mean_anomaly_deg":268.7631,"bstar":1.9827e-5,"rev_number":21641,"period_min":94.013165312491,"perigee_km":469.76703976653,"apogee_km":471.71075074561,"semimajor_km":6848.8758952561,"source":"CELESTRAK","updated_at":"2026-09-21T09:00:33.076111Z"}}}